Hourly Weather Aligudarz

Today, 2 March, Tuesday

Time Temperature Precipitation Wind Pressure Humidity
00:00 +2°C° 0 mm 1 mps 590 mmHg 86%
01:00 +2°C° 0 mm 1 mps 590 mmHg 86%
02:00 +2°C° 0 mm 1 mps 590 mmHg 87%
03:00 -1°C° 0 mm 2 mps 590 mmHg 84%
04:00 +1°C° 0 mm 1 mps 590 mmHg 85%
05:00 +1°C° 0 mm 1 mps 591 mmHg 86%
06:00 +1°C° 0 mm 1 mps 591 mmHg 87%
07:00 +2°C° 0 mm 1 mps 591 mmHg 82%
08:00 +3°C° 0 mm 1 mps 592 mmHg 77%
09:00 +4°C° 0 mm 1 mps 592 mmHg 72%
10:00 +5°C° 0 mm 1 mps 593 mmHg 68%
11:00 +6°C° 0 mm 1 mps 593 mmHg 63%
12:00 +6°C° 0 mm 2 mps 593 mmHg 58%
13:00 +7°C° 0 mm 2 mps 593 mmHg 55%
14:00 +7°C° 0 mm 2 mps 593 mmHg 51%
15:00 +8°C° 0 mm 3 mps 592 mmHg 47%
16:00 +7°C° 0 mm 2 mps 592 mmHg 50%
17:00 +6°C° 0 mm 2 mps 592 mmHg 54%
18:00 +5°C° 0 mm 2 mps 592 mmHg 57%
19:00 +5°C° 0 mm 2 mps 592 mmHg 61%
20:00 +4°C° 0 mm 2 mps 592 mmHg 65%
21:00 +4°C° 0 mm 1 mps 592 mmHg 68%
22:00 +4°C° 0 mm 1 mps 591 mmHg 70%
23:00 +4°C° 0 mm 1 mps 591 mmHg 72%

Tomorrow, 3 March, Wednesday

Time Temperature Precipitation Wind Pressure Humidity
00:00 +3°C° 0 mm 1 mps 591 mmHg 74%
01:00 +3°C° 0 mm 1 mps 591 mmHg 75%
02:00 +2°C° 0 mm 1 mps 590 mmHg 76%
03:00 +2°C° 0 mm 1 mps 590 mmHg 77%
04:00 +2°C° 0 mm 1 mps 590 mmHg 77%
05:00 +1°C° 0 mm 1 mps 590 mmHg 77%
06:00 +1°C° 0 mm 1 mps 590 mmHg 77%
07:00 +2°C° 0 mm 1 mps 591 mmHg 70%
08:00 +4°C° 0 mm 1 mps 592 mmHg 62%
09:00 +5°C° 0 mm 1 mps 592 mmHg 54%
10:00 +6°C° 0 mm 1 mps 593 mmHg 47%
11:00 +6°C° 0 mm 2 mps 593 mmHg 39%
12:00 +8°C° 0 mm 2 mps 593 mmHg 32%
13:00 +8°C° 0 mm 3 mps 593 mmHg 29%
14:00 +9°C° 0 mm 3 mps 592 mmHg 27%
15:00 +8°C° 0 mm 4 mps 592 mmHg 25%
16:00 +8°C° 0 mm 3 mps 592 mmHg 31%
17:00 +7°C° 0 mm 3 mps 592 mmHg 37%
18:00 +6°C° 0 mm 2 mps 591 mmHg 43%
19:00 +5°C° 0 mm 2 mps 591 mmHg 46%
20:00 +4°C° 0 mm 2 mps 591 mmHg 50%
21:00 +5°C° 0 mm 1 mps 591 mmHg 54%
22:00 +4°C° 0 mm 1 mps 591 mmHg 56%
23:00 +4°C° 0 mm 1 mps 591 mmHg 57%

Day after tomorrow, 4 March, Thursday

Time Temperature Precipitation Wind Pressure Humidity
00:00 +3°C° 0 mm 1 mps 591 mmHg 59%
01:00 +3°C° 0 mm 1 mps 590 mmHg 58%
02:00 +3°C° 0 mm 1 mps 590 mmHg 58%
03:00 +2°C° 0 mm 1 mps 589 mmHg 57%
04:00 +2°C° 0 mm 1 mps 590 mmHg 54%
05:00 +2°C° 0 mm 1 mps 590 mmHg 50%
06:00 +1°C° 0 mm 1 mps 590 mmHg 47%
07:00 +3°C° 0 mm 1 mps 591 mmHg 38%
08:00 +5°C° 0 mm 1 mps 592 mmHg 30%
09:00 +7°C° 0 mm 1 mps 593 mmHg 21%
10:00 +9°C° 0 mm 1 mps 593 mmHg 22%
11:00 +9°C° 0 mm 2 mps 594 mmHg 22%
12:00 +12°C° 0 mm 2 mps 594 mmHg 22%
13:00 +11°C° 0 mm 3 mps 594 mmHg 26%
14:00 +11°C° 0 mm 4 mps 593 mmHg 29%
15:00 +10°C° 0 mm 5 mps 593 mmHg 33%
16:00 +8°C° 0.4 mm 4 mps 592 mmHg 47%
17:00 +7°C° 0.4 mm 3 mps 591 mmHg 61%
18:00 +6°C° 0.4 mm 1 mps 591 mmHg 74%
19:00 +5°C° 0.2 mm 2 mps 591 mmHg 77%
20:00 +5°C° 0.2 mm 2 mps 591 mmHg 80%
21:00 +4°C° 0.2 mm 3 mps 591 mmHg 82%
22:00 +4°C° 0 mm 3 mps 590 mmHg 84%
23:00 +5°C° 0 mm 2 mps 590 mmHg 85%

5 March, Friday

Time Temperature Precipitation Wind Pressure Humidity
00:00 +5°C° 0 mm 2 mps 589 mmHg 86%
01:00 +5°C° 0.5 mm 2 mps 589 mmHg 87%
02:00 +5°C° 0.5 mm 2 mps 588 mmHg 89%
03:00 +4°C° 0.5 mm 2 mps 588 mmHg 91%
04:00 +3°C° 1.1 mm 3 mps 588 mmHg 91%
05:00 +3°C° 1.1 mm 4 mps 587 mmHg 92%
06:00 +3°C° 1.1 mm 4 mps 587 mmHg 93%
07:00 +3°C° 0.6 mm 6 mps 588 mmHg 85%
08:00 +3°C° 0.6 mm 7 mps 589 mmHg 76%
09:00 +4°C° 0.6 mm 8 mps 589 mmHg 68%
10:00 +5°C° 0 mm 9 mps 589 mmHg 59%
11:00 +5°C° 0 mm 9 mps 589 mmHg 50%
12:00 +6°C° 0 mm 10 mps 589 mmHg 40%
13:00 +5°C° 0 mm 9 mps 589 mmHg 43%
14:00 +5°C° 0 mm 9 mps 589 mmHg 45%
15:00 +5°C° 0 mm 8 mps 589 mmHg 47%
16:00 +4°C° 0 mm 7 mps 589 mmHg 52%
17:00 +3°C° 0 mm 6 mps 589 mmHg 56%
18:00 +2°C° 0 mm 5 mps 589 mmHg 61%
19:00 +1°C° 0 mm 4 mps 590 mmHg 64%
20:00 +2°C° 0 mm 3 mps 590 mmHg 68%
21:00 +2°C° 0 mm 2 mps 591 mmHg 71%
22:00 +2°C° 0 mm 2 mps 591 mmHg 73%
23:00 +2°C° 0 mm 2 mps 591 mmHg 76%

6 March, Saturday

Time Temperature Precipitation Wind Pressure Humidity
00:00 +1°C° 0 mm 2 mps 591 mmHg 78%
01:00 +2°C° 0 mm 1 mps 590 mmHg 79%
02:00 +2°C° 0 mm 1 mps 590 mmHg 80%
03:00 +1°C° 0 mm 1 mps 590 mmHg 81%
04:00 +1°C° 0 mm 1 mps 590 mmHg 82%
05:00 +1°C° 0 mm 1 mps 590 mmHg 82%
06:00 0°C° 0 mm 0 mps 591 mmHg 83%
07:00 +1°C° 0 mm 0 mps 591 mmHg 74%
08:00 +3°C° 0 mm 1 mps 592 mmHg 65%
09:00 +5°C° 0 mm 1 mps 593 mmHg 56%
10:00 +6°C° 0 mm 1 mps 593 mmHg 48%
11:00 +8°C° 0 mm 1 mps 593 mmHg 40%
12:00 +8°C° 0 mm 2 mps 594 mmHg 33%
13:00 +9°C° 0 mm 2 mps 594 mmHg 30%
14:00 +10°C° 0 mm 2 mps 594 mmHg 27%
15:00 +10°C° 0 mm 3 mps 594 mmHg 24%
16:00 +9°C° 0 mm 2 mps 593 mmHg 29%
17:00 +8°C° 0 mm 2 mps 593 mmHg 33%
18:00 +8°C° 0 mm 1 mps 592 mmHg 38%
19:00 +8°C° 0 mm 1 mps 592 mmHg 40%
20:00 +7°C° 0 mm 1 mps 592 mmHg 42%
21:00 +5°C° 0 mm 0 mps 592 mmHg 45%
22:00 +6°C° 0 mm 1 mps 591 mmHg 44%
23:00 +5°C° 0 mm 1 mps 591 mmHg 43%

7 March, Sunday

Time Temperature Precipitation Wind Pressure Humidity
00:00 +5°C° 0 mm 1 mps 591 mmHg 43%
01:00 +4°C° 0 mm 1 mps 590 mmHg 43%
02:00 +4°C° 0 mm 1 mps 590 mmHg 44%
03:00 +4°C° 0 mm 1 mps 589 mmHg 44%
04:00 +3°C° 0 mm 1 mps 589 mmHg 43%
05:00 +3°C° 0 mm 1 mps 589 mmHg 43%
06:00 +3°C° 0 mm 1 mps 589 mmHg 42%
07:00 +5°C° 0 mm 1 mps 590 mmHg 36%
08:00 +6°C° 0 mm 2 mps 591 mmHg 30%
09:00 +8°C° 0 mm 2 mps 592 mmHg 25%
10:00 +9°C° 0 mm 3 mps 592 mmHg 21%
11:00 +10°C° 0 mm 3 mps 592 mmHg 18%
12:00 +12°C° 0 mm 4 mps 592 mmHg 15%
13:00 +12°C° 0 mm 5 mps 592 mmHg 16%
14:00 +11°C° 0 mm 6 mps 591 mmHg 17%
15:00 +11°C° 0 mm 7 mps 591 mmHg 18%
16:00 +10°C° 0 mm 6 mps 591 mmHg 23%
17:00 +8°C° 0 mm 5 mps 590 mmHg 28%
18:00 +7°C° 0 mm 4 mps 590 mmHg 34%
19:00 +7°C° 0 mm 3 mps 590 mmHg 37%
20:00 +6°C° 0 mm 2 mps 589 mmHg 41%
21:00 +6°C° 0 mm 2 mps 589 mmHg 45%
22:00 +5°C° 0 mm 2 mps 589 mmHg 49%
23:00 +5°C° 0 mm 2 mps 589 mmHg 52%
Show more